TimePDT,TemperatureF,Dew PointF,Humidity,Sea Level PressureIn,VisibilityMPH,Wind Direction,Wind SpeedMPH,Gust SpeedMPH,PrecipitationIn,Events,Conditions,WindDirDegrees,DateUTC
12:15 AM,55.4,23.0,29,29.87,10.0,SE,6.9,-,N/A,,Clear,140,2012-10-31 07:15:00
12:35 AM,55.4,23.0,29,29.87,10.0,Calm,Calm,-,N/A,,Clear,0,2012-10-31 07:35:00
12:55 AM,53.6,23.0,30,29.87,10.0,Calm,Calm,-,N/A,,Clear,0,2012-10-31 07:55:00
1:15 AM,51.8,24.8,35,29.87,10.0,Calm,Calm,-,N/A,,Clear,0,2012-10-31 08:15:00
1:35 AM,48.2,26.6,43,29.86,10.0,Calm,Calm,-,N/A,,Clear,0,2012-10-31 08:35:00
1:55 AM,48.2,28.4,46,29.87,10.0,Calm,Calm,-,N/A,,Clear,0,2012-10-31 08:55:00
2:15 AM,46.4,28.4,50,29.86,10.0,Calm,Calm,-,N/A,,Clear,0,2012-10-31 09:15:00
2:35 AM,46.4,28.4,50,29.86,10.0,Calm,Calm,-,N/A,,Clear,0,2012-10-31 09:35:00
2:55 AM,46.4,26.6,46,29.85,10.0,Calm,Calm,-,N/A,,Clear,0,2012-10-31 09:55:00
3:15 AM,46.4,26.6,46,29.85,10.0,Calm,Calm,-,N/A,,Clear,0,2012-10-31 10:15:00
3:35 AM,44.6,28.4,53,29.84,10.0,Calm,Calm,-,N/A,,Clear,0,2012-10-31 10:35:00
3:55 AM,46.4,28.4,50,29.83,10.0,SSW,3.5,-,N/A,,Clear,200,2012-10-31 10:55:00
4:15 AM,44.6,28.4,53,29.83,10.0,SSW,3.5,-,N/A,,Clear,210,2012-10-31 11:15:00
4:35 AM,46.4,24.8,43,29.82,10.0,SSE,5.8,-,N/A,,Clear,150,2012-10-31 11:35:00
4:55 AM,44.6,24.8,46,29.82,10.0,SSE,6.9,-,N/A,,Clear,150,2012-10-31 11:55:00
5:15 AM,44.6,24.8,46,29.81,10.0,South,4.6,-,N/A,,Clear,190,2012-10-31 12:15:00
5:35 AM,44.6,24.8,46,29.82,10.0,SW,3.5,-,N/A,,Clear,230,2012-10-31 12:35:00
5:55 AM,44.6,24.8,46,29.81,10.0,Calm,Calm,-,N/A,,Clear,0,2012-10-31 12:55:00
6:15 AM,46.4,24.8,43,29.81,10.0,Calm,Calm,-,N/A,,Clear,0,2012-10-31 13:15:00
6:35 AM,46.4,24.8,43,29.80,10.0,SSE,3.5,-,N/A,,Clear,160,2012-10-31 13:35:00
6:55 AM,44.6,26.6,49,29.80,10.0,Calm,Calm,-,N/A,,Clear,0,2012-10-31 13:55:00
7:15 AM,44.6,24.8,46,29.80,10.0,SSW,4.6,-,N/A,,Clear,210,2012-10-31 14:15:00
7:35 AM,46.4,24.8,43,29.79,10.0,Calm,Calm,-,N/A,,Clear,0,2012-10-31 14:35:00
7:55 AM,44.6,24.8,46,29.78,10.0,Calm,Calm,-,N/A,,Clear,0,2012-10-31 14:55:00
8:15 AM,44.6,24.8,46,29.79,6.0,Calm,Calm,-,N/A,,Haze,0,2012-10-31 15:15:00
8:35 AM,44.6,24.8,46,29.79,10.0,Calm,Calm,-,N/A,,Clear,0,2012-10-31 15:35:00
8:55 AM,50.0,19.4,30,29.78,10.0,South,8.1,-,N/A,,Clear,180,2012-10-31 15:55:00
9:15 AM,55.4,17.6,23,29.79,10.0,SSW,9.2,-,N/A,,Clear,210,2012-10-31 16:15:00
9:35 AM,55.4,19.4,25,29.78,10.0,South,5.8,-,N/A,,Clear,180,2012-10-31 16:35:00
9:55 AM,57.2,17.6,21,29.78,10.0,South,4.6,-,N/A,,Clear,190,2012-10-31 16:55:00
10:15 AM,57.2,19.4,23,29.78,10.0,South,6.9,-,N/A,,Clear,180,2012-10-31 17:15:00
10:35 AM,57.2,17.6,21,29.78,10.0,SSW,4.6,-,N/A,,Clear,210,2012-10-31 17:35:00
10:55 AM,57.2,23.0,27,29.78,10.0,WNW,4.6,-,N/A,,Clear,290,2012-10-31 17:55:00
11:15 AM,55.4,24.8,31,29.78,10.0,Calm,Calm,-,N/A,,Clear,0,2012-10-31 18:15:00
11:35 AM,57.2,23.0,27,29.76,10.0,Calm,Calm,-,N/A,,Clear,0,2012-10-31 18:35:00
11:55 AM,59.0,21.2,23,29.76,10.0,Calm,Calm,-,N/A,,Clear,0,2012-10-31 18:55:00
12:15 PM,59.0,21.2,23,29.77,10.0,North,4.6,-,N/A,,Partly Cloudy,350,2012-10-31 19:15:00
12:55 PM,62.6,19.4,19,29.74,10.0,South,13.8,19.6,N/A,,Partly Cloudy,190,2012-10-31 19:55:00
1:15 PM,62.6,21.2,20,29.73,10.0,SSW,16.1,24.2,N/A,,Scattered Clouds,210,2012-10-31 20:15:00
1:35 PM,62.6,23.0,22,29.73,10.0,SSW,12.7,19.6,N/A,,Mostly Cloudy,210,2012-10-31 20:35:00
1:55 PM,62.6,23.0,22,29.73,10.0,WSW,12.7,25.3,N/A,,Mostly Cloudy,240,2012-10-31 20:55:00
2:15 PM,60.8,26.6,27,29.75,10.0,SW,15.0,23.0,N/A,Rain,Light Rain,230,2012-10-31 21:15:00
2:35 PM,57.2,32.0,38,29.77,10.0,WSW,20.7,32.2,N/A,Rain,Light Rain,240,2012-10-31 21:35:00
2:55 PM,53.6,35.6,51,29.80,8.0,SW,21.9,29.9,N/A,Rain,Light Rain,230,2012-10-31 21:55:00
3:35 PM,50.0,39.2,66,29.83,10.0,SW,12.7,-,0.01,,Scattered Clouds,220,2012-10-31 22:35:00
3:55 PM,50.0,37.4,62,29.83,10.0,SW,13.8,18.4,0.01,Rain,Light Rain,220,2012-10-31 22:55:00
4:35 PM,48.2,37.4,66,29.85,10.0,SSW,11.5,-,N/A,Rain,Light Rain,200,2012-10-31 23:35:00
4:55 PM,48.2,37.4,66,29.86,10.0,South,8.1,-,N/A,Rain,Light Rain,180,2012-10-31 23:55:00
5:35 PM,46.4,33.8,62,29.85,10.0,SSW,15.0,-,N/A,,Clear,200,2012-11-01 00:35:00
5:55 PM,46.4,32.0,57,29.83,10.0,South,9.2,-,N/A,,Clear,170,2012-11-01 00:55:00
6:15 PM,46.4,32.0,57,29.83,10.0,SE,5.8,-,N/A,,Clear,140,2012-11-01 01:15:00
6:35 PM,44.6,32.0,61,29.82,10.0,South,3.5,-,N/A,,Clear,170,2012-11-01 01:35:00
6:55 PM,44.6,32.0,61,29.81,10.0,SSE,8.1,-,N/A,,Clear,160,2012-11-01 01:55:00
7:15 PM,46.4,32.0,57,29.82,10.0,South,5.8,-,N/A,,Clear,190,2012-11-01 02:15:00
7:35 PM,46.4,32.0,57,29.83,10.0,SSW,6.9,-,N/A,,Clear,200,2012-11-01 02:35:00
7:55 PM,46.4,32.0,57,29.82,10.0,SSW,8.1,20.7,N/A,,Clear,200,2012-11-01 02:55:00
8:15 PM,44.6,32.0,61,29.82,10.0,South,8.1,-,N/A,,Clear,190,2012-11-01 03:15:00
8:35 PM,44.6,32.0,61,29.83,10.0,Calm,Calm,-,N/A,,Partly Cloudy,0,2012-11-01 03:35:00
8:55 PM,42.8,32.0,66,29.82,10.0,Calm,Calm,-,N/A,,Partly Cloudy,0,2012-11-01 03:55:00
9:15 PM,41.0,32.0,70,29.82,10.0,SSE,5.8,-,N/A,,Clear,150,2012-11-01 04:15:00
9:35 PM,42.8,32.0,66,29.82,10.0,SSE,8.1,-,N/A,,Partly Cloudy,150,2012-11-01 04:35:00
9:55 PM,44.6,32.0,61,29.82,10.0,SE,6.9,-,N/A,,Scattered Clouds,130,2012-11-01 04:55:00
10:15 PM,44.6,32.0,61,29.82,10.0,SE,3.5,-,N/A,,Scattered Clouds,130,2012-11-01 05:15:00
10:35 PM,44.6,32.0,61,29.82,10.0,ESE,6.9,-,N/A,,Scattered Clouds,120,2012-11-01 05:35:00
10:55 PM,44.6,32.0,61,29.83,10.0,ESE,5.8,-,N/A,,Partly Cloudy,110,2012-11-01 05:55:00
11:15 PM,44.6,30.2,57,29.82,10.0,ESE,6.9,-,N/A,,Partly Cloudy,120,2012-11-01 06:15:00
11:35 PM,44.6,28.4,53,29.81,10.0,ESE,9.2,-,N/A,,Clear,120,2012-11-01 06:35:00
11:55 PM,44.6,28.4,53,29.82,10.0,SE,3.5,-,N/A,,Partly Cloudy,130,2012-11-01 06:55:00